Probability
0 0 0 0 0 0 0 0 0 0 0 0 0 0 0 0 0 0 0 0 0 0 0 0 0 0 0 0 0 0 0 0 0 0 0 0 0 0 0 0 0 0 0 0
0 0 0 0 0 0 0 0 0 0 0 0 0 0 0 0 0 0 0 0 0 0 0 0 0 0 0 0 0 0 0 0 0 0 0 0 0 0 0 0 0 0 0 0
0 0 0 0 0 0 0 0 0 0 0 0 0 0 0 0 0 0 0 0 0 0 0 0 0 0 0 0 0 0 0 0 0 0 0 0 0 0 0 0 0 0 0 0
0 0 0 0 0 0 0 0 0 0 0 0 0 0 0 0 0 0 0 0 0 0 0 0 0 0 0 0 0 0 0 0 0 0 0 0 0 0 0 0 0 0 0 0
0 0 0 0 0 0 0 0 0 0 0 0 0 0 0 0 0 0 0 0 0 0 0 0 0 0 0 0 0 0 0 0 0 0 0 0 0 0 0 0 0 0 0 0
0 0 0 0 0 0 0 0 0 0 0 0 0 0 0 0 0 0 0 0 0 0 0 0 0 0 0 0 0 0 0 0 0 0 0 0 0 0 0 0 0 0 0 0
0 0 0 0 0 0 0 0 0 0 0 0 0 0 0 0 0 0 0 0 0 0 0 0 0 0 0 0 0 0 0 0 0 0 0 0 0 0 0 0 0 0 0 0
0 0 0 0 0 0 0 0 0 0 0 0 0 0 0 0 0 0 0 0 0 0 0 0 0 0 0 0 0 0 0 0 0 0 0 0 0 0 0 0 0 0 0 0
0 0 0 0 0 0 0 0 0 0 0 0 0 0 0 0 0 0 0 0 0 0 0 0 0 0 0 0 0 0 0 0 0 0 0 0 0 0 0 0 0 0 0 0
0 0 0 0 0 0 0 0 0 0 0 0 0 0 0 0 0 0 0 0 0 0 0 0 0 0 0 0 0 0 0 0 0 0 0 0 0 0 0 0 0 0 0 0
0 0 0 0 0 0 0 0 0 0 0 0 0 0 0 0 0 0 0 0 0 0 0 0 0 0 0 0 0 0 0 0 0 0 0 0 0 0 0 0 0 0 0 0
0 0 0 0 0 0 0 0 0 0 0 0 0 0 0 0 0 0 0 0 0 0 0 0 0 0 0 0 0 0 0 0 0 0 0 0 0 0 0 0 0 0 0 0
0 0 0 0 0 0 0 0 0 0 0 0 0 0 0 0 0 0 0 0 0 0 0 0 0 0 0 0 0 0 0 0 0 0 0 0 0 0 0 0 0 0 0 0
0 0 0 0 0 0 0 0 0 0 0 0 0 0 0 0 0 0 0 0 0 0 0 0 0 0 0 0 0 0 0 0 0 0 0 0 0 0 0 0 0 0 0 0
0 0 0 0 0 0 0 0 0 0 0 0 0 0 0 0 0 0 0 0 0 0 0 0 0 0 0 0 0 0 0 0 0 0 0 0 0 0 0 0 0 0 0 0
0 0 0 0 0 0 0 0 0 0 0 0 0 0 0 0 0 0 0 0 0 0 0 0 0 0 0 0 0 0 0 0 0 0 0 0 0 0 0 0 0 0 0 0
0 0 0 0 0 0 0 0 0 0 0 0 0 0 0 0 0 0 0 0 0 0 0 0 0 0 0 0 0 0 0 0 0 0 0 0 0 0 0 0 0 0 0 0
0 0 0 0 0 0 0 0 0 0 0 0 0 0 0 0 0 0 0 0 0 0 0 0 0 0 0 0 0 0 0 0 0 0 0 0 0 0 0 0 0 0 0 0
0 0 0 0 0 0 0 0 0 0 0 0 0 0 0 0 0 0 0 0 0 0 0 0 0 0 0 0 0 0 0 0 0 0 0 0 0 0 0 0 0 0 0 0
0 0 0 0 0 0 0 0 0 0 0 0 0 0 0 0 0 0 0 0 0 0 0 0 0 0 0 0 0 0 0 0 0 0 0 0 0 0 0 0 0 0 0 0
0 0 0 0 0 0 0 0 0 0 0 0 0 0 0 0 0 0 0 0 0 0 0 0 0 0 0 0 0 0 0 0 0 0 0 0 0 0 0 0 0 0 0 0
0 0 0 0 0 0 0 0 0 0 0 0 0 0 0 0 0 0 0 0 0 0 0 0 0 0 0 0 0 0 0 0 0 0 0 0 0 0 0 0 0 0 0 0
0 0 0 0 0 0 0 0 0 0 0 0 0 0 0 0 0 0 0 0 0 0 0 0 0 0 0 0 0 0 0 0 0 0 0 0 0 0 0 0 0 0 0 0
0 0 0 0 0 0 0 0 0 0 0 0 0 0 0 0 0 0 0 0 0 0 0 0 0 0 0 0 0 0 0 0 0 0 0 0 0 0 0 0 0 0 0 0
0 0 0 0 0 0 0 0 0 0 0 0 0 0 0 0 0 0 0 0 0 0 0 0 0 0 0 0 0 0 0 0 0 0 0 0 0 0 0 0 0 0 0 0
0 0 0 0 0 0 0 0 0 0 0 0 0 0 0 0 0 0 0 0 0 0 0 0 0 0 0 0 0 0 0 0 0 0 0 0 0 0 0 0 0 0 0 0
0 0 0 0 0 0 0 0 0 0 0 0 0 0 0 0 0 0 0 0 0 0 0 0 0 0 0 0 0 0 0 0 0 0 0 0 0 0 0 0 0 0 0 0
Wind_Speed
6 6 4 6 7 8 10 10 10 10 9 9 6 5 4 3 3 3 2 2 2 2 1 1 1 1 2 2 2 2 2 2 3 3 3 2 2 3 3 3 3 3 4 4
5 5 5 8 8 9 10 9 10 8 9 6 4 1 1 2 3 4 3 3 2 2 2 2 2 1 1 2 2 2 2 3 3 2 2 2 3 3 3 3 3 3 4 5
5 3 4 8 8 9 7 5 6 10 8 2 2 2 4 4 4 4 3 2 2 2 2 2 2 2 2 2 1 1 2 2 2 2 3 3 3 3 3 3 4 4 5 5
2 1 8 6 1 4 5 3 4 3 3 2 3 3 2 3 3 2 2 2 2 2 2 2 2 2 2 1 1 2 2 2 3 3 3 3 3 4 4 4 4 4 5 5
2 4 9 4 1 2 4 5 4 5 3 1 1 2 2 1 1 2 3 2 2 2 2 2 2 1 1 2 2 2 3 3 3 3 4 4 4 5 4 4 4 5 5 5
3 4 8 4 2 2 2 4 2 3 4 2 1 2 5 1 1 1 1 1 1 1 1 1 2 1 1 2 3 4 4 4 4 4 4 5 5 5 4 4 4 5 6 5
5 6 8 3 2 1 2 5 2 2 3 3 4 5 3 1 1 0 1 1 1 1 1 2 2 1 2 3 4 4 4 3 3 4 4 5 4 4 4 4 4 4 5 6
4 5 8 0 2 4 5 2 1 1 2 2 2 1 1 1 1 0 0 0 0 1 2 2 2 1 3 4 4 3 3 3 4 4 4 3 3 4 4 3 4 4 4 5
7 6 2 3 4 2 1 2 2 1 1 1 1 2 2 1 1 1 1 1 1 1 2 3 2 2 3 5 4 3 3 4 4 4 4 4 3 4 3 3 3 4 4 4
4 5 3 2 2 2 1 2 2 1 1 1 2 2 2 2 1 1 1 1 1 1 2 3 3 3 4 4 3 3 4 4 4 3 4 3 3 3 3 3 4 4 4 4
5 5 4 3 2 3 2 2 1 1 1 1 2 2 2 2 2 2 2 2 2 2 3 4 4 4 4 4 3 3 4 3 3 3 3 4 4 3 4 4 5 5 4 4
5 4 4 5 3 2 1 2 2 1 1 1 1 2 2 2 2 2 2 2 2 3 3 4 4 5 4 4 3 3 4 3 3 3 3 3 3 4 7 7 9 9 8 7
4 3 3 3 2 1 1 2 2 1 1 1 1 1 2 2 2 2 3 3 3 4 4 4 4 5 5 4 3 4 4 3 3 3 3 3 3 3 5 6 7 8 8 9
3 2 2 2 3 2 1 1 1 1 1 1 1 1 1 2 2 3 3 3 3 3 4 4 4 5 5 4 4 4 4 4 4 3 3 3 3 4 4 4 5 5 6 9
4 2 2 2 2 2 2 1 1 2 2 2 1 1 2 2 3 4 4 3 3 3 4 4 4 5 4 4 4 4 4 3 3 3 3 3 3 3 3 4 4 4 4 5
5 3 2 2 2 2 2 1 1 3 2 2 2 3 3 3 4 4 3 3 3 4 5 4 5 5 4 4 4 3 3 5 4 3 3 3 3 3 3 3 3 4 4 4
3 4 3 3 4 4 3 3 3 3 3 3 3 3 3 3 3 3 4 3 4 5 5 5 5 5 4 4 3 3 3 3 5 4 3 3 3 3 3 3 3 4 4 5
2 3 3 3 3 4 4 3 3 3 3 4 3 3 2 3 4 4 4 4 4 4 5 5 5 4 4 4 3 3 2 3 3 3 3 3 3 3 3 3 4 4 4 5
4 4 4 3 3 3 3 3 3 3 3 2 2 3 4 4 4 4 4 4 4 5 5 4 6 4 4 4 4 2 2 3 3 3 3 4 4 3 3 3 4 4 4 4
5 5 4 4 4 3 3 3 3 3 3 2 2 3 3 4 4 4 4 4 4 4 4 5 4 3 3 4 4 2 2 3 3 3 3 3 3 3 3 4 4 4 4 4
5 5 5 4 4 4 4 3 3 3 3 2 3 3 4 4 4 3 3 4 4 4 4 5 3 3 3 3 3 1 2 2 3 3 3 3 3 3 3 4 4 4 4 4
4 4 5 5 4 4 4 4 3 3 3 3 3 3 3 3 4 4 4 3 4 6 4 2 2 4 5 3 1 1 2 2 3 3 3 3 3 4 4 4 4 4 4 4
4 4 4 4 4 4 4 4 3 3 3 3 3 3 4 3 3 3 4 3 3 5 4 2 5 7 7 3 1 2 2 2 3 3 3 3 4 4 4 4 4 4 4 4
4 4 4 4 3 3 4 5 4 3 3 3 3 3 3 3 3 2 3 5 6 6 3 5 7 7 6 2 1 2 2 2 3 3 3 3 4 4 4 4 4 4 4 5
4 4 3 3 3 3 4 4 4 4 3 3 3 3 2 2 2 3 3 3 5 6 3 5 7 7 4 2 2 2 2 3 3 3 3 3 4 4 4 4 4 5 5 5
4 4 3 3 3 3 3 3 3 3 3 3 3 3 3 2 2 2 3 3 4 5 4 3 3 4 3 3 3 3 3 4 4 4 4 4 4 4 4 4 5 5 5 5
4 3 3 3 3 3 3 3 3 3 3 3 4 3 3 3 3 3 4 3 3 3 3 3 3 3 3 3 3 3 3 3 3 4 4 4 4 4 5 5 5 5 5 5
Wind_Direction
263 270 252 243 237 214 213 218 227 246 244 255 247 240 234 216 182 166 168 174 184 189 206 211 220 217 205 204 206 211 219 242 251 254 253 256 260 263 267 270 278 279 284 283
273 272 271 267 251 233 232 234 240 255 263 275 275 285 259 217 185 185 199 207 212 215 222 223 229 242 239 221 222 209 220 246 263 266 267 263 261 262 268 270 272 274 274 274
261 287 315 265 235 219 214 212 207 231 247 277 297 254 222 203 195 203 212 221 225 236 243 247 238 233 234 236 227 220 241 259 265 264 267 269 273 270 263 262 266 271 271 269
247 324 244 245 199 195 189 224 217 231 261 238 248 263 238 190 183 205 227 234 238 248 271 272 254 250 246 244 232 238 252 259 263 261 267 273 269 265 263 261 260 264 270 268
200 242 271 282 266 171 188 251 224 228 251 292 335 5 292 213 176 211 218 223 227 239 253 273 274 257 261 261 249 253 258 257 258 258 265 269 269 266 265 265 267 264 269 268
194 220 246 259 300 302 126 268 233 198 212 214 104 262 256 245 296 281 238 206 218 258 292 282 286 281 265 266 258 257 260 262 261 259 260 262 264 265 263 263 267 275 279 273
214 233 258 273 290 86 167 261 285 208 206 199 213 231 244 229 247 207 210 232 205 217 264 272 282 287 277 271 263 265 269 271 269 266 264 262 263 262 262 267 273 270 275 277
192 226 254 262 113 182 236 298 287 237 223 220 243 259 240 246 248 251 266 288 226 265 287 291 282 270 282 278 280 281 275 272 270 269 270 276 268 266 260 259 268 269 275 281
200 223 267 196 205 244 283 292 282 257 256 199 231 256 265 276 263 258 252 260 263 259 288 295 283 261 269 283 287 284 276 273 274 277 276 280 268 259 258 253 259 271 272 278
258 269 282 273 298 328 331 290 294 279 230 199 224 243 263 267 277 286 283 275 284 286 290 291 289 284 273 281 283 277 272 275 278 280 283 283 281 268 260 257 258 265 268 275
264 289 321 305 282 285 311 324 327 338 300 237 208 242 249 258 268 272 286 290 281 271 275 283 290 290 291 288 280 276 272 272 279 285 284 285 286 275 276 259 258 268 261 261
247 252 248 273 279 271 275 290 278 292 321 311 234 241 258 264 270 272 279 285 287 285 283 286 289 290 292 288 277 272 276 277 276 280 282 288 295 303 299 299 299 301 300 296
263 284 266 282 316 344 298 298 314 303 264 289 299 267 258 273 279 282 282 277 273 275 278 280 284 286 288 287 281 272 267 271 275 280 284 290 295 300 306 311 312 314 313 311
304 314 308 306 305 325 342 339 356 357 338 321 312 313 298 290 287 276 271 271 276 278 276 274 277 280 283 283 279 277 274 273 278 274 277 282 287 289 290 299 310 313 315 315
334 323 277 307 338 357 12 31 18 343 342 338 336 309 290 280 275 277 280 285 291 285 279 275 275 278 282 276 276 276 275 270 269 273 276 277 283 286 288 292 298 304 311 315
326 346 354 348 334 332 350 350 310 301 306 307 305 295 285 279 280 285 285 278 277 278 279 274 272 277 278 271 276 277 272 283 291 282 279 282 283 285 290 294 297 300 301 305
336 328 328 321 313 309 307 294 280 285 289 287 285 288 293 296 296 292 289 284 276 273 273 274 278 284 280 271 267 271 271 279 290 293 279 279 280 283 287 289 291 294 296 297
292 279 279 272 278 291 302 306 297 289 283 284 292 294 284 277 278 286 294 299 297 291 282 281 282 285 280 274 268 263 264 270 276 276 278 280 285 285 287 288 290 293 299 303
338 331 322 319 307 296 294 298 295 289 291 292 288 279 275 274 276 284 292 292 288 288 289 287 297 300 285 279 284 262 262 272 279 281 281 287 297 293 290 289 290 293 296 303
349 349 342 334 331 319 306 305 303 297 294 290 288 289 291 290 290 291 288 280 268 271 285 294 297 289 282 276 287 269 264 270 276 281 283 281 284 289 290 291 292 294 296 298
340 341 339 335 331 329 321 313 304 301 303 296 280 281 284 288 288 284 285 290 293 294 293 304 310 291 282 285 294 277 269 274 278 277 279 284 289 292 292 293 295 296 297 299
331 333 333 333 332 328 323 317 310 306 307 305 299 296 296 297 299 292 277 276 293 309 318 301 296 296 304 307 281 267 268 272 275 278 279 282 285 288 290 292 292 294 296 296
325 326 326 325 321 316 317 319 318 312 305 300 297 296 293 291 292 295 302 306 306 312 321 298 303 311 319 325 301 282 278 277 278 278 281 283 282 284 286 288 289 291 292 294
326 328 323 321 324 328 326 324 324 319 310 302 302 301 301 308 308 299 298 311 321 320 317 312 319 322 332 340 315 299 291 287 283 281 284 287 287 286 286 288 291 293 292 292
324 322 324 333 335 327 319 322 328 330 332 329 327 325 320 310 303 310 315 312 318 325 323 323 328 334 341 323 311 300 292 285 283 286 282 285 287 289 287 286 287 289 290 288
327 325 322 318 315 314 317 321 324 327 330 330 328 328 333 335 329 319 319 318 315 323 328 323 321 324 320 310 304 301 298 301 307 302 293 290 288 287 287 287 287 285 285 284
329 331 331 330 328 325 323 323 321 319 322 317 318 326 334 336 333 328 326 327 327 327 323 321 321 318 313 309 307 304 301 298 296 294 293 290 288 287 286 284 284 284 283 282